Charlottetown, Prince Edward Island

6:09 AM ADT on May 26, 2018 (GMT -0300)
Charlottetown

Weather History for CYYG - October, 2013

Change the Weather History Date:

Wednesday, October 30, 2013

  Actual Average Record
Temperature  
Mean Temperature 34 °F -  
Max Temperature 43 °F 43 °F 66 °F (2003)
Min Temperature 24 °F 30 °F 24 °F (2013)
Degree Days  
Heating Degree Days 32    
Moisture  
Dew Point 24 °F    
Average Humidity 67    
Maximum Humidity 86    
Minimum Humidity 46    
Precipitation  
Precipitation 0.00 in 0.16 in - ()
Sea Level Pressure  
Sea Level Pressure 30.21 in    
Wind  
Wind Speed 6 mph ()    
Max Wind Speed 16 mph    
Max Gust Speed 23 mph    
Visibility 15.0 miles    
Events      
Averages and records for this station are not official NWS values.
T = Trace of Precipitation, MM = Missing Value Source: Averaged Metar Reports

Daily Weather History Graph

Daily Weather History Graph

Search for Another Location

Airport or City:

Astronomy

Oct. 30, 2013 Rise Set
Actual Time 7:51 AM ADT 6:00 PM ADT
Civil Twilight 7:19 AM ADT 6:31 PM ADT
Nautical Twilight 6:44 AM ADT 7:07 PM ADT
Astronomical Twilight 6:09 AM ADT 7:41 PM ADT
Moon 3:21 AM ADT (10/30) 3:55 PM ADT (10/30)
Length of Visible Light 11h 12m
Length of Day
10h 09m
Waning Crescent, 17% of the Moon is Illuminated
Oct 30
Waning Crescent
Nov 3
New
Nov 10
First Quarter
Nov 17
Full
Nov 25
Last Quarter

Hourly Weather History & Observations

Time (ADT) Temp. Windchill Dew Point Humidity Pressure Visibility Wind Dir Wind Speed Gust Speed Precip Events Conditions
12:00 AM 30.2 °F 23.4 °F 21.2 °F 69% 30.35 in 15.0 mi West 6.9 mph - N/A   Partly Cloudy
1:00 AM 28.4 °F - 23.0 °F 80% 30.33 in 15.0 mi West 2.3 mph - N/A   Scattered Clouds
2:00 AM 28.4 °F 24.6 °F 21.2 °F 74% 30.34 in 15.0 mi West 3.5 mph - N/A   Scattered Clouds
3:00 AM 28 °F - 22 °F 72% 30.31 in 15 mi West 3.5 mph - -   Scattered Clouds
3:00 AM 28.4 °F - 23.0 °F 80% 30.31 in 15.0 mi West 2.3 mph - N/A   Scattered Clouds
4:00 AM 30.2 °F 25.4 °F 23.0 °F 75% 30.29 in 15.0 mi WSW 4.6 mph - N/A   Scattered Clouds
5:00 AM 28.4 °F 24.6 °F 23.0 °F 80% 30.29 in 15.0 mi WSW 3.5 mph - N/A   Scattered Clouds
6:00 AM 28.4 °F 23.3 °F 21.2 °F 74% 30.28 in 15.0 mi SW 4.6 mph - N/A   Scattered Clouds
7:00 AM 26.6 °F 19.1 °F 23.0 °F 86% 30.28 in 15.0 mi WSW 6.9 mph - N/A   Scattered Clouds
8:00 AM 26.6 °F 19.1 °F 23.0 °F 86% 30.28 in 15.0 mi West 6.9 mph - N/A   Scattered Clouds
9:00 AM 30 °F - 24 °F 69% 30.28 in 25 mi West 6.9 mph - -   Scattered Clouds
9:00 AM 30.2 °F 23.4 °F 23.0 °F 75% 30.28 in 25.0 mi West 6.9 mph - N/A   Mostly Cloudy
10:00 AM 33.8 °F 27.0 °F 24.8 °F 70% 30.28 in 15.0 mi WSW 8.1 mph - N/A   Mostly Cloudy
11:00 AM 35.6 °F 29.9 °F 26.6 °F 70% 30.26 in 15.0 mi WSW 6.9 mph - N/A   Mostly Cloudy
12:00 PM 39.2 °F 32.0 °F 28.4 °F 65% 30.24 in 15.0 mi SSW 11.5 mph - N/A   Mostly Cloudy
1:00 PM 39.2 °F 31.6 °F 30.2 °F 70% 30.19 in 15.0 mi SSW 12.7 mph - N/A   Mostly Cloudy
2:00 PM 41.0 °F 33.9 °F 32.0 °F 70% 30.16 in 15.0 mi SW 12.7 mph 19.6 mph N/A   Mostly Cloudy
3:00 PM 42 °F - 29 °F 50% 30.12 in 15 mi SW 13.8 mph - -   Partly Cloudy
3:00 PM 41.0 °F 32.8 °F 30.2 °F 65% 30.12 in 15.0 mi SW 16.1 mph 23.0 mph N/A   Mostly Cloudy
4:00 PM 41.0 °F 34.7 °F 28.4 °F 61% 30.10 in 15.0 mi SW 10.4 mph 17.3 mph N/A   Mostly Cloudy
5:00 PM 42.8 °F 36.6 °F 26.6 °F 53% 30.11 in 15.0 mi WSW 11.5 mph 17.3 mph N/A   Mostly Cloudy
6:00 PM 39.2 °F 34.2 °F 24.8 °F 56% 30.11 in 15.0 mi West 6.9 mph - N/A   Scattered Clouds
6:36 PM 35.6 °F 30.7 °F 21.2 °F 56% 30.12 in 15.0 mi WNW 5.8 mph - N/A   Partly Cloudy
7:00 PM 35.6 °F 31.7 °F 21.2 °F 56% 30.12 in 15.0 mi West 4.6 mph - N/A   Partly Cloudy
8:00 PM 32.0 °F 28.7 °F 21.2 °F 64% 30.14 in 15.0 mi West 3.5 mph - N/A   Partly Cloudy
9:00 PM 33 °F - 20 °F 46% 30.13 in 15 mi WNW 8.1 mph - -   Scattered Clouds
9:00 PM 33.8 °F 27.0 °F 19.4 °F 56% 30.13 in 15.0 mi WNW 8.1 mph - N/A   Partly Cloudy
10:00 PM 33.8 °F 27.0 °F 19.4 °F 56% 30.14 in 15.0 mi WNW 8.1 mph - N/A   Partly Cloudy
11:00 PM 32.0 °F 27.5 °F 19.4 °F 60% 30.14 in 15.0 mi West 4.6 mph - N/A   Partly Cloudy